DW9686 Weather Reports


time (UTC)temp
C
wind
direction
speed
KPH
gust
KPH
rain 1hr
cm
rain 24hr
cm
rain mn
cm
humidity
%
barometer
mb
20260902021538 23 120 4.8 9.7 0.00 0.00 0.00 59 1003.8
20260902020038 23 120 3.2 11.3 0.00 0.00 0.00 58 1003.8
20260902014538 25 120 6.4 11.3 0.00 0.00 0.00 53 1004.1
20260902013048 25 120 3.2 6.4 0.00 0.00 0.00 51 1004.1
20260902011537 25 120 4.8 11.3 0.00 0.00 0.00 53 1004.2
20260902010047 25 120 4.8 11.3 0.00 0.00 0.00 52 1004.3
20260902004537 26 120 6.4 11.3 0.00 0.00 0.00 50 1004.2
20260902003113 26 120 8.0 14.5 0.00 0.00 0.00 48 1004.3
20260902001537 27 120 11.3 19.3 0.00 0.00 0.00 47 1004.2
20260902000040 27 134 4.8 14.5 0.00 0.00 0.00 45 1004.3
20260901234539 26 136 9.7 16.1 0.00 0.00 0.00 44 1004.5
20260901233039 26 138 8.0 16.1 0.00 0.00 0.00 45 1004.4
20260901231547 26 152 8.0 16.1 0.00 0.00 0.00 46 1004.6
20260901230038 26 171 8.0 12.9 0.00 0.00 0.00 46 1004.8
20260901224537 26 172 4.8 12.9 0.00 0.00 0.00 44 1004.9
20260901223034 26 173 6.4 11.3 0.00 0.00 0.00 46 1005.2
20260901221542 25 176 4.8 11.3 0.00 0.00 0.00 46 1005.2
20260901220043 25 176 1.6 4.8 0.00 0.00 0.00 48 1005.2
20260901214540 25 0 1.6 8.0 0.00 0.00 0.00 48 1005.4
20260901213040 25 176 6.4 11.3 0.00 0.00 0.00 54 1005.6
20260901211537 24 176 4.8 11.3 0.00 0.00 0.00 53 1005.6
20260901210047 24 176 9.7 17.7 0.00 0.00 0.00 56 1005.7
20260901204535 23 166 4.8 17.7 0.00 0.00 0.00 56 1005.8
20260901203041 23 161 8.0 14.5 0.00 0.00 0.00 59 1006.2
20260901201537 22 143 6.4 11.3 0.00 0.00 0.00 57 1006.4
20260901200036 22 145 6.4 12.9 0.00 0.00 0.00 56 1006.4
20260901194537 22 141 6.4 14.5 0.00 0.00 0.00 56 1006.7
20260901193039 21 216 3.2 11.3 0.00 0.00 0.00 57 1006.6
20260901191539 21 216 4.8 11.3 0.00 0.00 0.00 56 1006.9
20260901190044 20 225 3.2 8.0 0.00 0.00 0.00 56 1007.0
20260901184534 20 225 3.2 6.4 0.00 0.00 0.00 62 1007.0
20260901183039 20 0 1.6 6.4 0.00 0.00 0.00 60 1007.0
20260901181541 20 225 3.2 6.4 0.00 0.00 0.00 62 1006.8
20260901180040 20 243 3.2 6.4 0.00 0.00 0.00 60 1007.0
20260901174548 20 243 3.2 8.0 0.00 0.00 0.00 60 1007.2
20260901173041 19 247 3.2 9.7 0.00 0.00 0.00 61 1007.4
20260901171544 19 0 0.0 3.2 0.00 0.00 0.00 61 1006.9
20260901170044 19 0 0.0 0.0 0.00 0.00 0.00 62 1006.9
20260901164545 18 0 0.0 4.8 0.00 0.00 0.00 61 1006.9
20260901163101 18 0 0.0 6.4 0.00 0.00 0.00 62 1007.0
20260901161540 18 0 0.0 4.8 0.00 0.00 0.00 64 1007.1
20260901160040 17 261 3.2 11.3 0.00 0.00 0.00 64 1006.8
20260901154549 16 254 3.2 8.0 0.00 0.00 0.00 68 1006.5
20260901153043 16 254 3.2 6.4 0.00 0.00 0.00 67 1006.7
20260901151538 15 0 0.0 4.8 0.00 0.00 0.00 74 1006.8
20260901150036 14 0 1.6 6.4 0.00 0.00 0.00 76 1006.8
20260901144542 15 253 3.2 8.0 0.00 0.00 0.00 75 1006.6
20260901143040 14 0 0.0 6.4 0.00 0.00 0.00 73 1006.2
20260901141539 14 254 1.6 8.0 0.00 0.00 0.00 73 1006.1
20260901140049 13 252 4.8 8.0 0.00 0.00 0.00 75 1006.2
20260901134538 13 248 8.0 12.9 0.00 0.00 0.00 75 1006.4
20260901133057 14 324 0.0 9.7 0.00 0.00 0.00 73 1006.5
20260901131542 15 331 6.4 9.7 0.00 0.00 0.00 70 1005.6
20260901130042 15 323 6.4 16.1 0.00 0.00 0.00 71 1005.7
20260901124540 15 5 4.8 12.9 0.00 0.00 0.00 72 1005.4
20260901123040 15 12 3.2 8.0 0.00 0.00 0.00 70 1005.8
20260901121550 15 12 4.8 11.3 0.00 0.00 0.00 69 1006.0
20260901120039 15 17 0.0 16.1 0.00 0.00 0.00 67 1006.2
20260901114540 15 9 8.0 16.1 0.00 0.00 0.00 69 1005.5
20260901113044 15 319 8.0 17.7 0.00 0.00 0.00 68 1005.9
20260901111536 15 352 6.4 12.9 0.00 0.00 0.00 71 1005.9
20260901110047 15 351 6.4 12.9 0.00 0.00 0.00 72 1005.9
20260901104545 15 344 4.8 8.0 0.00 0.00 0.00 71 1006.0
20260901103042 15 343 3.2 6.4 0.00 0.00 0.00 70 1006.0
20260901101542 16 343 4.8 12.9 0.00 0.00 0.00 67 1005.9
20260901100050 15 347 8.0 14.5 0.00 0.00 0.00 69 1005.7
20260901094549 15 325 4.8 12.9 0.00 0.00 0.00 70 1005.9
20260901093039 15 319 4.8 6.4 0.00 0.00 0.00 68 1006.0
20260901091543 16 319 3.2 6.4 0.00 0.00 0.00 68 1006.1
20260901090051 16 319 3.2 6.4 0.00 0.00 0.00 67 1006.1
20260901084540 16 319 3.2 6.4 0.00 0.00 0.00 65 1006.0
20260901083042 17 319 4.8 9.7 0.00 0.00 0.00 61 1006.1
20260901081539 17 319 3.2 8.0 0.00 0.00 0.00 58 1006.2
20260901080038 20 319 6.4 16.1 0.00 0.00 0.00 51 1006.1
20260901074542 20 302 11.3 16.1 0.00 0.00 0.00 51 1005.9
20260901073041 20 311 9.7 17.7 0.00 0.00 0.00 50 1005.9
20260901071543 20 306 11.3 19.3 0.00 0.00 0.00 50 1006.0
20260901070051 20 309 11.3 20.9 0.00 0.00 0.00 50 1006.1
20260901064537 20 294 12.9 17.7 0.00 0.00 0.00 50 1006.2
20260901063043 20 306 12.9 19.3 0.00 0.00 0.00 50 1006.2
20260901061541 20 306 11.3 20.9 0.00 0.00 0.00 50 1006.3
20260901060043 20 309 11.3 16.1 0.00 0.00 0.00 51 1006.5
20260901054544 20 311 9.7 16.1 0.00 0.00 0.00 52 1006.6
20260901053042 20 313 11.3 17.7 0.00 0.00 0.00 52 1006.6
20260901051547 20 310 9.7 17.7 0.00 0.00 0.00 52 1006.7
20260901050041 21 306 11.3 19.3 0.00 0.00 0.00 50 1006.7
20260901044538 21 297 11.3 19.3 0.00 0.00 0.00 50 1006.8
20260901043045 21 310 11.3 20.9 0.00 0.00 0.00 48 1006.6
20260901041542 22 305 14.5 20.9 0.00 0.00 0.00 46 1006.7
20260901040042 22 303 12.9 22.5 0.00 0.00 0.00 46 1006.7
20260901034543 22 294 14.5 22.5 0.00 0.00 0.00 46 1006.8
20260901033041 22 304 12.9 17.7 0.00 0.00 0.00 47 1006.8
20260901031547 22 305 12.9 19.3 0.00 0.00 0.00 48 1006.8
20260901030040 22 313 9.7 16.1 0.00 0.00 0.00 50 1006.9
20260901024543 23 315 9.7 16.1 0.00 0.00 0.00 50 1006.7
20260901023046 23 315 8.0 16.1 0.00 0.00 0.00 51 1006.8